Flag for U.S.A. Weather past 2 weeks in Terre Haute, Indiana, U.S.A.

Now
85 °F

Sunny.


Feels Like: 90 °F
Forecast: 64 / 86 °F
Wind: 12 mph from Southwest

Location: Terre Haute International Airport - Hulman Field

Current Time: Aug 2, 2015 at 8:35:12 PM

Latest Report: Aug 2, 2015 at 7:53 PM


Visibility: 10 mi

Pressure: 29.82 "Hg

Humidity: 63%

Dew point: 71 °F

Location of Terre HauteLocation

Historic Weather in Terre Haute — Graph

°F

Terre Haute temperature yesterday

Maximum temperature yesterday: 85 °F (at 4:53 PM)
Minimum temperature yesterday: 59 °F (at 6:53 AM)
Average temperature yesterday: 73 °F

Past Weeks' High & Low Weather Summary

 TemperatureHumidityPressure
High92 °F (Jul 28, 3:53 PM)97% (Jul 20, 4:53 AM)30.11 "Hg (Jul 20, 4:53 AM)
Low56 °F (Jul 22, 5:53 AM)32% (Jul 31, 6:53 PM)29.76 "Hg (Jul 20, 8:53 PM)
Average76 °F74%29.95 "Hg
* Reported Jul 18 6:53 PM — Aug 2 6:53 PM, Terre Haute, Weather by CustomWeather, © 2015

Note: Actual official high and low records may vary slightly from our data, if they occured in-between our weather recording intervals... More about our weather records

Advertising

Terre Haute weather history for previous 24 hours

 ConditionsComfort  
Time TempWeatherWind HumidityBarometerVisibility
6:53 PM
Sun, Aug 2
88 °FSunny.14 mph55%29.84 "Hg10 mi
5:53 PM89 °FSunny.12 mph52%29.85 "Hg10 mi
4:53 PM90 °FSunny.12 mph50%29.86 "Hg10 mi
3:53 PM89 °FSunny.13 mph52%29.88 "Hg10 mi
2:53 PM89 °FSunny.9 mph52%29.90 "Hg10 mi
1:53 PM88 °FSunny.12 mph54%29.91 "Hg10 mi
12:53 PM87 °FSunny.14 mph55%29.93 "Hg10 mi
11:53 AM84 °FSunny.6 mph57%29.94 "Hg10 mi
10:53 AM81 °FSunny.8 mph58%29.96 "Hg10 mi
9:53 AM77 °FSunny.9 mph64%29.96 "Hg10 mi
8:53 AM71 °FSunny.3 mph78%29.96 "Hg10 mi
7:53 AM65 °FSunny.No wind91%29.96 "Hg10 mi
6:53 AM60 °FClear.No wind93%29.95 "Hg10 mi
5:53 AM62 °FClear.No wind90%29.94 "Hg10 mi
4:53 AM60 °FClear.No wind93%29.95 "Hg10 mi
3:53 AM63 °FClear.No wind90%29.96 "Hg10 mi
2:53 AM63 °FClear.No wind90%29.97 "Hg10 mi
1:53 AM63 °FClear.No wind93%29.97 "Hg10 mi
12:53 AM65 °FClear.No wind91%29.97 "Hg10 mi
11:53 PM
Sat, Aug 1
65 °FClear.No wind91%29.96 "Hg10 mi
10:53 PM67 °FClear.No wind85%29.97 "Hg10 mi
9:53 PM68 °FSunny.No wind84%29.96 "Hg10 mi
8:53 PM76 °FSunny.3 mph58%29.96 "Hg10 mi
Weather by CustomWeather, © 2015

See weather overviewHow to use our weather pages